CW5302 Weather Reports


Display with metric or nautical units.
time (UTC)temp
F
wind
direction
speed
MPH
gust
MPH
rain 1hr
in
rain 24hr
in
rain mn
in
humidity
%
barometer
mb
20260906085312 59 309 0.0 0.0 0.00 0.00 0.00 82 1011.9
20260906084330 59 309 0.0 0.0 0.00 0.00 0.00 81 1011.9
20260906083330 60 309 0.0 0.0 0.00 0.00 0.00 82 1011.9
20260906082329 60 309 0.0 0.0 0.00 0.00 0.00 84 1012.0
20260906081314 60 309 0.0 0.0 0.00 0.00 0.00 83 1012.0
20260906080314 60 309 0.0 0.0 0.00 0.00 0.00 82 1012.0
20260906075314 60 309 0.0 0.0 0.00 0.00 0.00 79 1012.0
20260906074313 60 309 0.0 0.0 0.00 0.00 0.00 79 1012.0
20260906073331 60 309 0.0 0.0 0.00 0.00 0.00 79 1012.0
20260906072351 60 309 0.0 0.0 0.00 0.00 0.00 79 1012.3
20260906071328 60 309 0.0 0.0 0.00 0.00 0.00 79 1012.1
20260906070324 60 309 0.0 0.0 0.00 0.00 0.00 79 1012.1
20260906065323 61 309 0.0 0.0 0.00 0.00 0.00 79 1012.0
20260906064342 61 309 0.0 0.0 0.00 0.00 0.00 80 1012.0
20260906063321 61 309 0.0 0.0 0.00 0.00 0.00 79 1012.0
20260906062320 61 308 0.0 1.0 0.00 0.00 0.00 79 1011.9
20260906061338 62 308 0.0 0.0 0.00 0.00 0.00 78 1012.0
20260906060318 62 308 0.0 0.0 0.00 0.00 0.00 78 1012.0
20260906055336 62 308 0.0 3.0 0.00 0.00 0.00 78 1011.9
20260906054314 62 308 0.0 5.0 0.00 0.00 0.00 77 1011.9
20260906053333 62 313 0.0 0.0 0.00 0.00 0.00 78 1011.9
20260906052312 62 315 0.0 3.0 0.00 0.00 0.00 78 1011.9
20260906051311 61 267 0.0 1.0 0.00 0.00 0.00 80 1011.7
20260906050312 61 265 0.0 1.0 0.00 0.00 0.00 81 1011.7
20260906045310 61 252 0.0 0.0 0.00 0.00 0.00 81 1011.9
20260906044311 62 252 0.0 0.0 0.00 0.00 0.00 81 1011.9
20260906043313 62 252 0.0 0.0 0.00 0.00 0.00 80 1011.9
20260906042316 62 252 0.0 0.0 0.00 0.00 0.00 80 1011.9
20260906041315 62 252 0.0 0.0 0.00 0.00 0.00 79 1011.9
20260906040334 63 252 0.0 0.0 0.00 0.00 0.00 78 1011.9
20260906035314 63 252 0.0 0.0 0.00 0.00 0.00 77 1011.7
20260906034314 64 252 0.0 0.0 0.00 0.00 0.00 77 1011.5
20260906033315 64 252 0.0 0.0 0.00 0.00 0.00 74 1011.5
20260906032316 65 252 0.0 0.0 0.00 0.00 0.00 69 1011.4
20260906031316 65 252 0.0 0.0 0.00 0.00 0.00 67 1011.4
20260906030336 66 252 0.0 0.0 0.00 0.00 0.00 67 1011.4
20260906025315 66 252 0.0 0.0 0.00 0.00 0.00 65 1011.4
20260906024335 67 252 0.0 1.0 0.00 0.00 0.00 64 1011.4
20260906023314 67 252 0.0 0.0 0.00 0.00 0.00 63 1011.4
20260906022314 67 252 0.0 4.0 0.00 0.00 0.00 62 1011.3
20260906021313 68 11 0.0 5.0 0.00 0.00 0.00 59 1010.9
20260906020313 68 329 0.0 4.0 0.00 0.00 0.00 60 1010.9
20260906015312 68 355 0.0 4.0 0.00 0.04 0.00 58 1010.9
20260906014316 69 10 0.0 0.0 0.00 0.04 0.00 60 1010.9
20260906013337 68 328 0.0 2.0 0.00 0.04 0.00 60 1010.9
20260906012316 68 329 0.0 0.0 0.00 0.04 0.00 61 1010.9
20260906011314 69 329 0.0 0.0 0.00 0.04 0.00 60 1010.9
20260906010313 69 329 0.0 7.0 0.00 0.04 0.00 59 1010.9
20260906005313 70 355 0.0 5.0 0.00 0.08 0.00 56 1010.9
20260906004332 70 251 0.0 4.0 0.00 0.08 0.00 56 1011.0
20260906003330 70 283 0.0 6.0 0.00 0.08 0.00 54 1011.0
20260906002330 71 11 1.0 6.0 0.00 0.08 0.00 55 1011.1
20260906001350 71 265 0.0 7.0 0.00 0.08 0.00 53 1011.1
20260906000328 71 317 1.0 6.0 0.00 0.08 0.00 56 1011.1
20260905235328 71 311 0.0 5.0 0.00 0.08 0.00 56 1011.1
20260905234326 72 5 1.0 6.0 0.00 0.08 0.00 56 1011.2
20260905233347 73 298 1.0 7.0 0.00 0.08 0.00 54 1011.2
20260905232324 72 36 1.0 5.0 0.00 0.08 0.00 56 1011.3
20260905231324 72 321 0.0 6.0 0.00 0.08 0.00 58 1011.3
20260905230323 72 38 0.0 7.0 0.00 0.08 0.00 58 1011.3
20260905225343 72 80 0.0 5.0 0.00 0.09 0.00 58 1011.4
20260905224321 72 55 1.0 5.0 0.00 0.09 0.00 58 1011.5
20260905223321 71 325 1.0 7.0 0.00 0.09 0.00 61 1011.5
20260905222324 70 38 0.0 1.0 0.00 0.09 0.00 63 1011.9
20260905221324 69 344 1.0 4.0 0.00 0.09 0.00 63 1011.9
20260905220344 68 5 0.0 6.0 0.00 0.09 0.00 63 1011.9
20260905215322 69 355 1.0 5.0 0.00 0.09 0.00 63 1012.0
20260905214342 69 16 1.0 6.0 0.00 0.09 0.00 63 1012.0
20260905213320 68 9 1.0 5.0 0.00 0.09 0.00 63 1012.0
20260905212317 68 12 1.0 4.0 0.00 0.09 0.00 64 1012.2
20260905211317 67 340 2.0 5.0 0.00 0.09 0.00 65 1012.5
20260905210317 67 13 1.0 7.0 0.00 0.09 0.00 67 1012.5
20260905205316 67 355 1.0 5.0 0.00 0.09 0.00 67 1012.5
20260905204315 66 92 0.0 3.0 0.00 0.09 0.00 67 1012.5
20260905203313 66 349 0.0 2.0 0.00 0.09 0.00 70 1012.5
20260905202331 65 355 0.0 5.0 0.00 0.09 0.00 73 1012.6
20260905201331 65 337 0.0 6.0 0.00 0.09 0.00 74 1012.9
20260905200352 64 275 0.0 5.0 0.00 0.09 0.00 74 1012.9
20260905195330 63 225 0.0 3.0 0.00 0.09 0.00 77 1013.1
20260905194329 62 305 2.0 6.0 0.00 0.09 0.00 76 1013.0
20260905193329 62 261 0.0 2.0 0.00 0.09 0.00 77 1013.0
20260905192329 61 303 0.0 4.0 0.00 0.09 0.00 79 1013.5
20260905191313 60 267 0.0 1.0 0.00 0.09 0.00 81 1013.5
20260905190349 60 248 0.0 0.0 0.00 0.09 0.00 81 1013.5
20260905185331 60 248 0.0 1.0 0.00 0.09 0.00 80 1013.5
20260905184331 59 278 0.0 4.0 0.00 0.09 0.00 81 1013.7
20260905183331 59 252 0.0 4.0 0.00 0.09 0.00 82 1013.7
20260905182331 59 290 0.0 3.0 0.00 0.09 0.00 84 1013.7
20260905181329 58 273 0.0 4.0 0.00 0.09 0.00 87 1013.8
20260905180349 58 329 0.0 1.0 0.00 0.09 0.00 86 1013.8
20260905175327 57 329 0.0 1.0 0.00 0.09 0.00 88 1014.0
20260905174326 57 260 0.0 4.0 0.00 0.09 0.00 89 1014.0
20260905173325 57 256 0.0 0.0 0.00 0.09 0.00 90 1014.0
20260905172323 56 256 0.0 0.0 0.00 0.09 0.00 91 1014.0
20260905171345 56 255 0.0 3.0 0.00 0.09 0.00 91 1013.6
20260905170343 55 17 0.0 0.0 0.00 0.09 0.00 92 1013.6
20260905165322 55 27 0.0 0.0 0.00 0.09 0.00 92 1013.6
20260905164321 55 28 0.0 0.0 0.00 0.09 0.00 93 1013.8
20260905163320 55 28 0.0 0.0 0.00 0.09 0.00 94 1013.8
20260905162319 55 28 0.0 0.0 0.00 0.09 0.00 95 1013.7
20260905161323 55 28 0.0 1.0 0.00 0.09 0.00 96 1013.9
20260905160322 54 28 0.0 0.0 0.00 0.09 0.00 97 1013.9
20260905155339 54 28 0.0 0.0 0.00 0.09 0.00 97 1014.0
20260905154317 54 319 0.0 0.0 0.00 0.09 0.00 98 1014.1
20260905153338 54 318 0.0 1.0 0.00 0.09 0.00 98 1014.1
20260905152316 54 321 0.0 0.0 0.00 0.09 0.00 98 1014.0
20260905151314 54 321 0.0 0.0 0.00 0.09 0.00 98 1014.0
20260905150315 54 321 0.0 0.0 0.00 0.09 0.00 98 1014.0
20260905145333 54 321 0.0 0.0 0.00 0.09 0.00 98 1014.0
20260905144313 53 321 0.0 0.0 0.00 0.09 0.00 98 1013.9
20260905143333 53 321 0.0 2.0 0.00 0.09 0.00 98 1013.9
20260905142331 53 323 0.0 6.0 0.00 0.09 0.00 98 1014.0
20260905141330 53 331 0.0 1.0 0.00 0.09 0.00 98 1014.0
20260905140331 53 331 0.0 4.0 0.00 0.09 0.00 98 1014.0
20260905135331 53 340 0.0 5.0 0.00 0.09 0.00 98 1013.7
20260905134312 53 304 3.0 6.0 0.00 0.09 0.00 97 1013.5
20260905133331 53 327 0.0 2.0 0.00 0.09 0.00 97 1013.5
20260905132314 53 275 0.0 0.0 0.00 0.09 0.00 97 1013.5
20260905131314 53 275 0.0 1.0 0.00 0.09 0.00 97 1013.5
20260905130315 54 329 1.0 5.0 0.00 0.09 0.00 97 1013.5
20260905125314 54 294 0.0 4.0 0.00 0.09 0.00 97 1013.5
20260905124314 54 304 0.0 1.0 0.00 0.09 0.00 97 1013.5
20260905123315 54 304 0.0 0.0 0.00 0.09 0.00 97 1013.5
20260905122312 54 304 0.0 1.0 0.00 0.09 0.00 97 1013.5
20260905121333 55 304 0.0 0.0 0.00 0.09 0.00 97 1013.5
20260905120312 55 304 0.0 0.0 0.00 0.09 0.00 97 1013.5
20260905115311 55 304 0.0 0.0 0.00 0.11 0.00 97 1013.5
20260905114329 55 304 0.0 3.0 0.00 0.11 0.00 96 1013.5
20260905113329 55 302 0.0 0.0 0.00 0.11 0.00 97 1013.5
20260905112328 55 302 0.0 0.0 0.00 0.11 0.00 97 1013.4
20260905111325 55 302 0.0 0.0 0.00 0.11 0.00 97 1013.4
20260905110326 55 302 0.0 0.0 0.00 0.11 0.00 97 1013.4
20260905105328 55 302 0.0 0.0 0.00 0.16 0.00 97 1013.5
20260905104348 55 302 0.0 0.0 0.00 0.16 0.00 98 1013.5
20260905103328 55 302 0.0 0.0 0.00 0.16 0.00 98 1013.5
20260905102328 55 302 0.0 0.0 0.00 0.16 0.00 98 1013.5
20260905101327 55 302 0.0 0.0 0.00 0.16 0.00 98 1013.4
20260905100348 55 302 0.0 0.0 0.00 0.16 0.00 97 1013.4
20260905095326 55 302 0.0 0.0 0.00 0.18 0.00 98 1013.5
20260905094326 55 302 0.0 0.0 0.00 0.18 0.00 98 1013.5
20260905093345 55 302 0.0 0.0 0.00 0.18 0.00 97 1013.5
20260905092323 55 302 0.0 2.0 0.00 0.18 0.00 97 1013.4
20260905091324 56 302 0.0 0.0 0.00 0.18 0.00 97 1013.1
20260905090345 56 302 0.0 1.0 0.00 0.18 0.00 97 1013.1